Location: Camps Bay
(33.9517°S, 18.3844°E)
Time: 09:36:17
(UTC+00:00)

CZ-2C R/B - Pass Details

Date: 18 January 2020
Orbit: 669 x 783 km, 98.1° (Epoch: 27 February)

Event Time Altitude Azimuth Distance (km) Brightness Sun altitude
Exits shadow 02:52:44 - 352° (N) 2,892 5.1 -11.7°
Reaches altitude 10° 02:54:14 10° 347° (NNW) 2,339 4.6 -11.4°
Maximum altitude 02:59:03 39° 278° (W) 1,173 3.0 -10.6°
Drops below altitude 10° 03:03:54 10° 210° (SSW) 2,349 5.1 -9.8°
Sets 03:06:23 0° 202° (SSW) 3,272 5.9 -9.3°
